Change the Weather History Date:

Friday, April 11, 2014

  Actual Average Record
Temperature  
Mean Temperature 48 °F -  
Max Temperature 55 °F 52 °F 81 °F (1945)
Min Temperature 42 °F 29 °F 11 °F (1974)
Degree Days  
Heating Degree Days 16    
Moisture  
Dew Point 43 °F    
Average Humidity 84    
Maximum Humidity 93    
Minimum Humidity 63    
Precipitation  
Precipitation 0.52 in - - ()
Sea Level Pressure  
Sea Level Pressure 30.01 in    
Wind  
Wind Speed 5 mph (WNW)    
Max Wind Speed 10 mph    
Max Gust Speed 16 mph    
Visibility 7 miles    
Events      
Averages and records for this station are not official NWS values.
T = Trace of Precipitation, MM = Missing Value Source: NWS Daily Summary

Daily Weather History Graph

Daily Weather History Graph

Search for Another Location

Airport or City:

Trip Planner

Search our weather history database for the weather conditions in past years. The results will help you decide how hot, cold, wet, or windy it might be!

Date:

Astronomy

Apr. 11, 2014 Rise Set
Actual Time 6:46 AM EDT 7:55 PM EDT
Civil Twilight 6:17 AM EDT 8:23 PM EDT
Nautical Twilight 5:43 AM EDT 8:57 PM EDT
Astronomical Twilight 5:08 AM EDT 9:33 PM EDT
Moon 4:32 PM EDT (4/11) 4:42 AM EDT (4/11)
Length of Visible Light 14h 06m
Length of Day
13h 09m
Waxing Gibbous, 87% of the Moon is Illuminated
Apr 11
Waxing Gibbous
Apr 15
Full
Apr 22
Last Quarter
Apr 29
New
May 6
First Quarter

Hourly Weather History & Observations

Time (EDT) Temp. Windchill Dew Point Humidity Pressure Visibility Wind Dir Wind Speed Gust Speed Precip Events Conditions
12:15 AM 55.4 °F - 42.8 °F 63% 29.93 in 10.0 mi NW 8.1 mph 16.1 mph N/A   Overcast
12:35 AM 55.4 °F - 44.6 °F 67% 29.94 in 10.0 mi NNW 10.4 mph 16.1 mph N/A   Overcast
12:55 AM 53.6 °F - 44.6 °F 72% 29.96 in 10.0 mi WNW 5.8 mph - N/A   Overcast
1:15 AM 51.8 °F - 46.4 °F 82% 29.97 in 9.0 mi NW 6.9 mph - 0.01 in   Overcast
1:35 AM 51.8 °F - 46.4 °F 82% 29.97 in 8.0 mi West 6.9 mph - 0.05 in   Overcast
1:55 AM 51.8 °F - 46.4 °F 82% 29.96 in 10.0 mi West 3.5 mph - 0.08 in   Mostly Cloudy
2:15 AM 51.8 °F - 46.4 °F 82% 29.97 in 10.0 mi SW 8.1 mph - 0.03 in   Overcast
2:35 AM 51.8 °F - 46.4 °F 82% 29.98 in 7.0 mi SW 6.9 mph - 0.06 in   Overcast
2:55 AM 51.8 °F - 46.4 °F 82% 29.98 in 10.0 mi WSW 6.9 mph - 0.09 in   Overcast
3:15 AM 51.8 °F - 46.4 °F 82% 29.98 in 7.0 mi SW 5.8 mph - 0.02 in   Overcast
3:35 AM 50.0 °F - 46.4 °F 87% 29.97 in 8.0 mi SW 5.8 mph - 0.03 in   Overcast
3:55 AM 50.0 °F - 46.4 °F 87% 29.97 in 9.0 mi WSW 5.8 mph - 0.03 in   Overcast
4:15 AM 50.0 °F - 46.4 °F 87% 29.98 in 7.0 mi West 6.9 mph - 0.01 in   Overcast
4:35 AM 50.0 °F - 46.4 °F 87% 29.99 in 7.0 mi WSW 4.6 mph - 0.01 in   Overcast
4:55 AM 50.0 °F - 46.4 °F 87% 29.99 in 10.0 mi WSW 6.9 mph - 0.01 in   Overcast
5:15 AM 50.0 °F - 46.4 °F 87% 30.00 in 5.0 mi WNW 6.9 mph - 0.02 in   Overcast
5:35 AM 50.0 °F - 46.4 °F 87% 30.00 in 4.0 mi WNW 4.6 mph - 0.02 in   Overcast
5:55 AM 48.2 °F - 44.6 °F 87% 30.00 in 6.0 mi West 3.5 mph - 0.03 in   Mostly Cloudy
6:15 AM 48.2 °F - 46.4 °F 93% 30.00 in 5.0 mi Calm Calm - N/A   Overcast
6:35 AM 48.2 °F - 46.4 °F 93% 30.01 in 3.0 mi Calm Calm - N/A   Overcast
6:55 AM 48.2 °F - 44.6 °F 87% 30.01 in 3.0 mi Calm Calm - N/A   Overcast
7:15 AM 48.2 °F - 44.6 °F 87% 30.02 in 2.5 mi Calm Calm - N/A   Overcast
7:35 AM 48.2 °F - 44.6 °F 87% 30.01 in 2.5 mi Calm Calm - N/A   Overcast
7:55 AM 48.2 °F - 46.4 °F 93% 30.02 in 1.8 mi Calm Calm - 0.02 in   Overcast
8:15 AM 50.0 °F - 46.4 °F 87% 30.01 in 2.5 mi Calm Calm - N/A   Overcast
8:35 AM 48.2 °F - 44.6 °F 87% 30.02 in 6.0 mi Calm Calm - N/A   Overcast
8:55 AM 48.2 °F - 46.4 °F 93% 30.02 in 2.0 mi Calm Calm - N/A   Overcast
9:15 AM 48.2 °F - 46.4 °F 93% 30.02 in 3.0 mi Calm Calm - N/A   Overcast
9:35 AM 50.0 °F - 46.4 °F 87% 30.04 in 1.5 mi NW 6.9 mph - 0.03 in   Overcast
9:55 AM 48.2 °F - 42.8 °F 82% 30.05 in 5.0 mi NNW 4.6 mph - 0.09 in   Overcast
10:15 AM 46.4 °F 42.9 °F 39.2 °F 76% 30.04 in 8.0 mi North 6.9 mph - 0.04 in   Mostly Cloudy
10:35 AM 44.6 °F 42.2 °F 39.2 °F 81% 30.05 in 10.0 mi North 4.6 mph - 0.06 in   Overcast
10:55 AM 44.6 °F 41.4 °F 39.2 °F 81% 30.05 in 6.0 mi North 5.8 mph - 0.06 in   Overcast
11:15 AM 44.6 °F 39.7 °F 37.4 °F 76% 30.04 in 10.0 mi NNE 9.2 mph - 0.01 in   Overcast
11:35 AM 44.6 °F 39.7 °F 37.4 °F 76% 30.03 in 10.0 mi NNE 9.2 mph - 0.02 in   Overcast
11:55 AM 42.8 °F 38.0 °F 37.4 °F 81% 30.04 in 10.0 mi NE 8.1 mph - 0.03 in   Overcast
12:15 PM 42.8 °F 39.3 °F 37.4 °F 81% 30.05 in 5.0 mi NNE 5.8 mph - N/A   Overcast
12:35 PM 42.8 °F 38.6 °F 37.4 °F 81% 30.04 in 2.5 mi NE 6.9 mph - 0.01 in   Overcast
12:55 PM 42.8 °F 38.6 °F 37.4 °F 81% 30.03 in 2.5 mi NE 6.9 mph - 0.02 in   Overcast
1:15 PM 42.8 °F 39.3 °F 39.2 °F 87% 30.03 in 3.0 mi ENE 5.8 mph - N/A   Overcast
1:35 PM 42.8 °F 39.3 °F 39.2 °F 87% 30.03 in 2.5 mi ESE 5.8 mph - 0.01 in   Overcast
1:55 PM 42.8 °F 39.3 °F 39.2 °F 87% 30.03 in 2.5 mi East 5.8 mph - 0.02 in   Mostly Cloudy
2:15 PM 42.8 °F 40.1 °F 39.2 °F 87% 30.03 in 2.5 mi East 4.6 mph - N/A   Overcast
2:35 PM 44.6 °F 42.2 °F 41.0 °F 87% 30.03 in 3.0 mi East 4.6 mph - 0.01 in   Overcast
2:55 PM 44.6 °F 43.1 °F 41.0 °F 87% 30.03 in 2.5 mi East 3.5 mph - 0.02 in   Overcast
3:15 PM 44.6 °F - 39.2 °F 81% 30.03 in 5.0 mi Calm Calm - 0.01 in   Overcast
3:35 PM 44.6 °F 42.2 °F 41.0 °F 87% 30.03 in 4.0 mi ESE 4.6 mph - 0.02 in   Overcast
3:55 PM 44.6 °F - 42.8 °F 93% 30.03 in 8.0 mi Calm Calm - 0.02 in   Overcast
4:15 PM 46.4 °F 45.2 °F 42.8 °F 87% 30.02 in 5.0 mi ENE 3.5 mph - N/A   Overcast
4:35 PM 46.4 °F - 42.8 °F 87% 30.02 in 10.0 mi Calm Calm - N/A   Overcast
4:55 PM 46.4 °F 45.2 °F 42.8 °F 87% 30.02 in 10.0 mi East 3.5 mph - N/A   Overcast
5:15 PM 46.4 °F - 42.8 °F 87% 30.02 in 10.0 mi Calm Calm - N/A   Overcast
5:35 PM 46.4 °F - 42.8 °F 87% 30.02 in 10.0 mi Calm Calm - N/A   Overcast
5:55 PM 46.4 °F - 42.8 °F 87% 30.03 in 10.0 mi Calm Calm - N/A   Overcast
6:15 PM 46.4 °F - 42.8 °F 87% 30.03 in 10.0 mi Calm Calm - N/A   Overcast
6:35 PM 46.4 °F 45.2 °F 42.8 °F 87% 30.04 in 10.0 mi South 3.5 mph - N/A   Mostly Cloudy
6:55 PM 46.4 °F 45.2 °F 41.0 °F 81% 30.04 in 10.0 mi South 3.5 mph - N/A   Partly Cloudy
7:15 PM 46.4 °F 45.2 °F 42.8 °F 87% 30.04 in 10.0 mi South 3.5 mph - N/A   Clear
7:35 PM 46.4 °F 45.2 °F 41.0 °F 81% 30.04 in 10.0 mi South 3.5 mph - N/A   Clear
7:55 PM 44.6 °F 43.1 °F 39.2 °F 81% 30.04 in 10.0 mi South 3.5 mph - N/A   Clear
8:15 PM 44.6 °F 43.1 °F 39.2 °F 81% 30.04 in 10.0 mi South 3.5 mph - N/A   Clear
8:35 PM 44.6 °F 43.1 °F 39.2 °F 81% 30.05 in 10.0 mi South 3.5 mph - N/A   Clear
8:55 PM 42.8 °F 40.1 °F 39.2 °F 87% 30.06 in 9.0 mi SSW 4.6 mph - N/A   Unknown
9:15 PM - - - N/A% - - North - - N/A   Unknown
9:35 PM - - - N/A% - - North - - N/A   Unknown
9:55 PM - - - N/A% - - North - - N/A   Unknown
10:15 PM - - - N/A% - - North - - N/A   Unknown
10:35 PM - - - N/A% - - North - - N/A   Unknown
10:55 PM - - - N/A% - - North - - N/A   Unknown
11:15 PM - - - N/A% - - North - - N/A   Unknown
11:35 PM - - - N/A% - - North - - N/A   Unknown
11:55 PM - - - N/A% - - North - - N/A   Unknown